User: anonymous   Login
Location: Handeloh
(53.2500°N, 9.8330°E)
Time: 16:21:50
(UTC+01:00)
Language:

Tiros 1 - Orbit

View from above orbital plane
View from above orbital plane
View from above satellite
View from above satellite

Ground track
Ground track

The orbit data is extracted from the following two-line orbital elements,

1    29U 60002B   19315.35885451 -.00000132  00000-0  11414-4 0  9999
2    29  48.3796 262.5708 0024040  13.6992 346.4568 14.74327532186335
Epoch (UTC): 11 November 2019 08:36:45
Eccentricity: 0.0024040
inclination: 48.3796°
perigee height: 630 km
apogee height: 664 km
right ascension of ascending node: 262.5708°
argument of perigee: 13.6992°
revolutions per day: 14.74327532
mean anomaly at epoch: 346.4568°
orbit number at epoch: 18633

The dashed part of the orbit path shows where the satellite is in the earth's shadow,  

DLR